{"data":{"norad_id":56837,"epoch":"2026-05-25T00:01:14.843136Z","epoch_age_seconds":78194,"freshness":"FRESH","line1":"1 56837U 23079Q   26145.00086624 -.00001614  00000+0 -49153-4 0  9993","line2":"2 56837  43.0043  35.6814 0001504 265.5392  94.5288 15.27577055164566","mean_motion":15.27577055,"eccentricity":0.0001504,"inclination_deg":43.0043,"raan_deg":35.6814,"arg_perigee_deg":265.5392,"mean_anomaly_deg":94.5288,"bstar":-4.9153e-5,"rev_number":16456,"period_min":94.266930449541,"perigee_km":482.02599072815,"apogee_km":484.08983815841,"semimajor_km":6861.1949144433,"source":"CELESTRAK","updated_at":"2026-05-25T13:38:18.164305Z"}}